Location: Days
(41.3591°N, 106.7339°W)
Time: 03:08:57
(UTC+00:00)

UWE-3 - Pass Details

Date: 04 July 2022
Orbit: 583 x 677 km, 97.7° (Epoch: 09 August)

Event Time Altitude Azimuth Distance (km) Brightness Sun altitude
Rises 09:44:55 0° 24° (NNE) 2,915 ? -16.6°
Reaches altitude 10° 09:47:23 10° 37° (NE) 2,020 ? -16.3°
Maximum altitude 09:51:08 27° 96° (E) 1,238 ? -15.9°
Drops below altitude 10° 09:54:57 10° 154° (SSE) 2,055 ? -15.4°
Enters shadow 09:56:00 - 160° (SSE) 2,427 ? -15.3°
